| time (UTC) | temp C | wind direction | speed KPH | gust KPH | rain 1hr cm | rain 24hr cm | rain mn cm | humidity % | barometer mb |
| 20260506102817 | 16 | 295 | 8.0 | 24.1 | 0.00 | 7.70 | 1.50 | 81 | 1004.5 |
| 20260506102319 | 17 | 283 | 12.9 | 24.1 | 0.00 | 7.70 | 1.50 | 80 | 1004.3 |
| 20260506101821 | 17 | 19 | 6.4 | 19.3 | 0.00 | 7.70 | 1.50 | 83 | 1004.3 |
| 20260506101323 | 16 | 254 | 8.0 | 17.7 | 0.00 | 7.70 | 1.50 | 83 | 1004.3 |
| 20260506100823 | 16 | 330 | 6.4 | 32.2 | 0.00 | 7.70 | 1.50 | 84 | 1004.2 |
| 20260506100323 | 16 | 272 | 16.1 | 32.2 | 0.00 | 7.70 | 1.50 | 82 | 1004.2 |
| 20260506095825 | 16 | 312 | 9.7 | 27.4 | 0.00 | 7.70 | 1.50 | 80 | 1004.1 |
| 20260506095328 | 17 | 300 | 16.1 | 27.4 | 0.00 | 7.70 | 1.50 | 79 | 1004.0 |
| 20260506094831 | 17 | 292 | 14.5 | 27.4 | 0.00 | 7.70 | 1.50 | 80 | 1003.9 |
| 20260506094327 | 16 | 309 | 12.9 | 27.4 | 0.00 | 7.70 | 1.50 | 81 | 1003.7 |
| 20260506093830 | 16 | 275 | 11.3 | 29.0 | 0.00 | 7.70 | 1.50 | 82 | 1003.7 |
| 20260506093314 | 16 | 276 | 11.3 | 29.0 | 0.00 | 7.70 | 1.50 | 84 | 1003.6 |
| 20260506092816 | 16 | 280 | 14.5 | 29.0 | 0.00 | 7.70 | 1.50 | 83 | 1003.5 |
| 20260506092315 | 16 | 271 | 11.3 | 35.4 | 0.00 | 7.70 | 1.50 | 83 | 1003.6 |
| 20260506091816 | 16 | 277 | 12.9 | 35.4 | 0.00 | 7.70 | 1.50 | 82 | 1003.4 |
| 20260506090819 | 16 | 307 | 14.5 | 32.2 | 0.00 | 7.70 | 1.50 | 83 | 1003.1 |
| 20260506090322 | 16 | 299 | 8.0 | 32.2 | 0.00 | 7.70 | 1.50 | 83 | 1003.1 |
| 20260506085825 | 16 | 241 | 17.7 | 32.2 | 0.00 | 8.00 | 1.50 | 82 | 1003.1 |
| 20260506085346 | 16 | 284 | 11.3 | 32.2 | 0.00 | 8.00 | 1.50 | 85 | 1003.0 |
| 20260506084827 | 16 | 259 | 16.1 | 32.2 | 0.00 | 8.00 | 1.50 | 85 | 1003.0 |
| 20260506084329 | 15 | 267 | 9.7 | 32.2 | 0.00 | 8.00 | 1.50 | 87 | 1002.8 |
| 20260506083831 | 16 | 266 | 12.9 | 29.0 | 0.00 | 8.00 | 1.50 | 87 | 1002.8 |
| 20260506083332 | 15 | 255 | 9.7 | 29.0 | 0.00 | 8.00 | 1.50 | 90 | 1002.8 |
| 20260506082812 | 15 | 236 | 8.0 | 16.1 | 0.00 | 8.00 | 1.50 | 90 | 1003.0 |
| 20260506082313 | 15 | 271 | 8.0 | 14.5 | 0.00 | 8.00 | 1.50 | 91 | 1002.9 |
| 20260506081813 | 15 | 262 | 6.4 | 22.5 | 0.00 | 8.00 | 1.50 | 92 | 1002.9 |
| 20260506081333 | 14 | 257 | 12.9 | 22.5 | 0.00 | 8.00 | 1.50 | 92 | 1002.9 |
| 20260506080813 | 14 | 275 | 3.2 | 12.9 | 0.00 | 8.00 | 1.50 | 92 | 1002.8 |
| 20260506080333 | 14 | 249 | 6.4 | 14.5 | 0.00 | 8.00 | 1.50 | 92 | 1002.9 |
| 20260506073329 | 13 | 224 | 6.4 | 11.3 | 0.00 | 8.20 | 1.50 | 94 | 1002.8 |
| 20260506072852 | 13 | 240 | 4.8 | 11.3 | 0.00 | 8.20 | 1.50 | 94 | 1002.8 |
| 20260506072333 | 13 | 271 | 4.8 | 9.7 | 0.00 | 8.20 | 1.50 | 95 | 1002.8 |
| 20260506071815 | 13 | 219 | 3.2 | 11.3 | 0.00 | 8.20 | 1.50 | 95 | 1002.8 |
| 20260506071338 | 13 | 217 | 4.8 | 11.3 | 0.00 | 8.20 | 1.50 | 95 | 1002.9 |
| 20260506070820 | 13 | 248 | 4.8 | 11.3 | 0.00 | 8.20 | 1.50 | 95 | 1002.9 |
| 20260506070323 | 13 | 244 | 4.8 | 11.3 | 0.00 | 8.20 | 1.50 | 95 | 1002.9 |
| 20260506062318 | 13 | 229 | 1.6 | 6.4 | 0.00 | 8.20 | 1.50 | 96 | 1002.8 |
| 20260506061821 | 13 | 188 | 1.6 | 6.4 | 0.00 | 8.20 | 1.50 | 97 | 1002.8 |
| 20260506061323 | 13 | 201 | 1.6 | 8.0 | 0.00 | 8.20 | 1.50 | 97 | 1002.9 |
| 20260506060826 | 13 | 148 | 3.2 | 8.0 | 0.00 | 8.20 | 1.50 | 97 | 1002.8 |
| 20260506060328 | 13 | 142 | 4.8 | 9.7 | 0.00 | 8.20 | 1.50 | 97 | 1002.9 |
| 20260506051316 | 12 | 243 | 1.6 | 4.8 | 0.10 | 8.20 | 1.50 | 97 | 1003.1 |
| 20260506050821 | 12 | 230 | 1.6 | 4.8 | 0.10 | 8.20 | 1.50 | 97 | 1003.2 |
| 20260506050352 | 12 | 157 | 1.6 | 8.0 | 0.10 | 8.20 | 1.50 | 97 | 1003.2 |
| 20260506044837 | 12 | 107 | 4.8 | 9.7 | 0.10 | 8.20 | 1.50 | 96 | 1003.2 |
| 20260506044316 | 12 | 108 | 3.2 | 9.7 | 0.10 | 8.20 | 1.50 | 97 | 1003.2 |
| 20260506043816 | 12 | 46 | 4.8 | 9.7 | 0.10 | 8.20 | 1.50 | 97 | 1003.3 |
| 20260506043316 | 12 | 70 | 0.0 | 8.0 | 0.10 | 8.20 | 1.50 | 96 | 1003.3 |
| 20260506042817 | 12 | 70 | 0.0 | 9.7 | 0.10 | 8.20 | 1.50 | 96 | 1003.3 |
| 20260506042317 | 12 | 71 | 3.2 | 11.3 | 0.00 | 8.10 | 1.47 | 96 | 1003.3 |
| 20260506041838 | 12 | 134 | 3.2 | 12.9 | 0.00 | 8.10 | 1.47 | 96 | 1003.3 |
| 20260506041317 | 12 | 68 | 4.8 | 12.9 | 0.00 | 8.10 | 1.47 | 96 | 1003.3 |
| 20260506040817 | 12 | 105 | 3.2 | 9.7 | 0.00 | 8.10 | 1.47 | 96 | 1003.4 |
| 20260506040318 | 12 | 129 | 6.4 | 9.7 | 0.00 | 8.10 | 1.47 | 96 | 1003.3 |
| 20260506035819 | 12 | 118 | 1.6 | 6.4 | 0.00 | 8.10 | 1.47 | 96 | 1003.3 |
| 20260506035320 | 12 | 110 | 1.6 | 9.7 | 0.00 | 8.10 | 1.47 | 97 | 1003.4 |
| 20260506034823 | 12 | 119 | 3.2 | 9.7 | 0.00 | 8.10 | 1.47 | 97 | 1003.5 |
| 20260506034325 | 12 | 124 | 1.6 | 9.7 | 0.00 | 8.10 | 1.47 | 97 | 1003.5 |
| 20260506033827 | 12 | 123 | 3.2 | 9.7 | 0.00 | 8.10 | 1.47 | 96 | 1003.5 |
| 20260506033329 | 12 | 148 | 0.0 | 8.0 | 0.00 | 8.10 | 1.47 | 96 | 1003.6 |
| 20260506032852 | 12 | 152 | 1.6 | 8.0 | 0.00 | 8.10 | 1.47 | 96 | 1003.6 |
| 20260506032353 | 12 | 126 | 4.8 | 8.0 | 0.00 | 8.10 | 1.47 | 96 | 1003.6 |
| 20260506031814 | 12 | 115 | 1.6 | 6.4 | 0.00 | 8.10 | 1.47 | 96 | 1003.7 |
| 20260506031316 | 12 | 137 | 3.2 | 6.4 | 0.00 | 8.10 | 1.47 | 96 | 1003.7 |
| 20260506030819 | 12 | 203 | 1.6 | 3.2 | 0.00 | 8.10 | 1.47 | 96 | 1003.8 |
| 20260506030322 | 12 | 206 | 1.6 | 4.8 | 0.00 | 8.10 | 1.47 | 96 | 1003.8 |
| 20260506025820 | 12 | 246 | 1.6 | 4.8 | 0.00 | 8.10 | 1.47 | 96 | 1003.7 |
| 20260506025322 | 12 | 229 | 1.6 | 4.8 | 0.00 | 8.10 | 1.47 | 96 | 1003.7 |
| 20260506024844 | 12 | 141 | 1.6 | 3.2 | 0.00 | 8.10 | 1.47 | 96 | 1003.7 |
| 20260506024346 | 12 | 127 | 1.6 | 8.0 | 0.00 | 8.10 | 1.47 | 96 | 1003.5 |
| 20260506023827 | 12 | 123 | 3.2 | 11.3 | 0.00 | 8.10 | 1.47 | 96 | 1003.6 |
| 20260506023312 | 12 | 111 | 4.8 | 16.1 | 0.00 | 8.10 | 1.47 | 96 | 1003.5 |
| 20260506022836 | 12 | 82 | 8.0 | 16.1 | 0.00 | 8.10 | 1.47 | 96 | 1003.5 |
| 20260506022318 | 12 | 76 | 6.4 | 19.3 | 0.10 | 8.10 | 1.47 | 96 | 1003.6 |
| 20260506021821 | 12 | 53 | 9.7 | 19.3 | 0.10 | 8.10 | 1.47 | 96 | 1003.6 |
| 20260506021322 | 12 | 45 | 9.7 | 19.3 | 0.10 | 8.10 | 1.47 | 96 | 1003.6 |
| 20260506020824 | 12 | 68 | 8.0 | 19.3 | 0.10 | 8.10 | 1.47 | 96 | 1003.6 |
| 20260506020346 | 12 | 139 | 8.0 | 20.9 | 0.20 | 8.10 | 1.47 | 96 | 1003.6 |
| 20260506015909 | 12 | 96 | 9.7 | 20.9 | 0.20 | 8.10 | 1.47 | 96 | 1003.6 |
| 20260506015347 | 12 | 68 | 9.7 | 20.9 | 0.20 | 8.10 | 1.47 | 96 | 1003.6 |
| 20260506014828 | 12 | 52 | 12.9 | 24.1 | 0.30 | 8.10 | 1.47 | 96 | 1003.6 |
| 20260506014328 | 12 | 34 | 9.7 | 24.1 | 0.30 | 8.10 | 1.47 | 96 | 1003.5 |
| 20260506013829 | 12 | 43 | 16.1 | 24.1 | 0.41 | 8.10 | 1.47 | 96 | 1003.6 |
| 20260506013330 | 12 | 46 | 14.5 | 25.7 | 0.51 | 8.10 | 1.47 | 96 | 1003.6 |
| 20260506012830 | 12 | 35 | 12.9 | 25.7 | 0.71 | 8.10 | 1.47 | 96 | 1003.6 |
| 20260506012331 | 12 | 53 | 14.5 | 27.4 | 0.79 | 8.00 | 1.45 | 96 | 1003.6 |
| 20260506011832 | 12 | 63 | 16.1 | 27.4 | 0.99 | 8.00 | 1.45 | 96 | 1003.8 |
| 20260506011313 | 12 | 65 | 12.9 | 22.5 | 1.19 | 8.00 | 1.45 | 96 | 1003.9 |
| 20260506010815 | 12 | 53 | 12.9 | 22.5 | 1.40 | 8.00 | 1.45 | 96 | 1003.9 |
| 20260506010318 | 12 | 75 | 11.3 | 22.5 | 1.60 | 7.90 | 1.45 | 96 | 1003.9 |
| 20260506005819 | 12 | 59 | 9.7 | 19.3 | 2.31 | 7.90 | 1.45 | 96 | 1003.9 |
| 20260506005318 | 12 | 37 | 9.7 | 17.7 | 2.59 | 7.90 | 1.45 | 96 | 1004.2 |
| 20260506004821 | 12 | 42 | 9.7 | 16.1 | 3.30 | 7.80 | 1.42 | 96 | 1004.5 |
| 20260506004314 | 13 | 67 | 6.4 | 14.5 | 4.29 | 7.80 | 1.42 | 96 | 1004.6 |
| 20260506003832 | 12 | 16 | 6.4 | 14.5 | 4.19 | 7.70 | 1.40 | 96 | 1004.8 |
| 20260506003332 | 13 | 359 | 4.8 | 12.9 | 3.99 | 7.49 | 1.37 | 96 | 1005.0 |
| 20260506002833 | 13 | 17 | 6.4 | 14.5 | 3.91 | 7.39 | 1.35 | 96 | 1005.0 |
| 20260506002332 | 13 | 32 | 8.0 | 14.5 | 3.71 | 7.19 | 1.30 | 96 | 1005.1 |
| 20260506001832 | 13 | 54 | 6.4 | 12.9 | 3.51 | 7.01 | 1.27 | 96 | 1005.3 |
| 20260506001314 | 12 | 25 | 4.8 | 8.0 | 3.30 | 6.81 | 1.22 | 96 | 1005.5 |
| 20260506000817 | 12 | 53 | 4.8 | 6.4 | 3.20 | 6.60 | 1.17 | 96 | 1005.7 |
| 20260506000322 | 12 | 17 | 4.8 | 6.4 | 2.90 | 6.30 | 1.12 | 96 | 1006.0 |
| 20260505235823 | 12 | 234 | 0.0 | 4.8 | 2.31 | 5.59 | 0.99 | 96 | 1006.4 |
| 20260505235325 | 12 | 219 | 1.6 | 11.3 | 1.91 | 5.21 | 0.89 | 96 | 1006.5 |
| 20260505234828 | 12 | 226 | 4.8 | 14.5 | 1.19 | 4.39 | 0.74 | 96 | 1006.5 |
| 20260505234350 | 12 | 270 | 6.4 | 14.5 | 0.41 | 3.51 | 0.56 | 96 | 1006.4 |
| 20260505233831 | 12 | 234 | 3.2 | 12.9 | 0.41 | 3.51 | 0.56 | 95 | 1006.1 |
| 20260505233312 | 12 | 65 | 6.4 | 14.5 | 0.41 | 3.51 | 0.56 | 95 | 1005.5 |
| 20260505232814 | 12 | 20 | 8.0 | 14.5 | 0.41 | 3.51 | 0.56 | 95 | 1005.3 |
| 20260505232335 | 12 | 23 | 6.4 | 14.5 | 0.51 | 3.51 | 0.56 | 95 | 1005.3 |
| 20260505231817 | 12 | 27 | 8.0 | 16.1 | 0.61 | 3.51 | 0.56 | 95 | 1005.3 |
| 20260505231319 | 13 | 13 | 4.8 | 16.1 | 1.91 | 3.51 | 0.56 | 95 | 1005.2 |
| 20260505230842 | 13 | 63 | 6.4 | 16.1 | 1.91 | 3.40 | 0.53 | 95 | 1005.1 |
| 20260505230322 | 13 | 36 | 6.4 | 19.3 | 2.01 | 3.40 | 0.53 | 95 | 1005.0 |
| 20260505225844 | 13 | 85 | 11.3 | 19.3 | 2.79 | 3.30 | 0.51 | 95 | 1004.9 |
| 20260505225323 | 13 | 25 | 6.4 | 11.3 | 2.69 | 3.20 | 0.51 | 95 | 1005.3 |
| 20260505224824 | 13 | 58 | 4.8 | 12.9 | 2.69 | 3.20 | 0.51 | 95 | 1005.6 |
| 20260505224327 | 13 | 51 | 6.4 | 12.9 | 2.59 | 3.10 | 0.48 | 94 | 1005.6 |
| 20260505223828 | 13 | 46 | 4.8 | 12.9 | 2.59 | 3.10 | 0.48 | 94 | 1005.5 |
| 20260505223350 | 13 | 32 | 6.4 | 12.9 | 2.59 | 3.10 | 0.48 | 94 | 1005.3 |
| 20260505222813 | 13 | 324 | 3.2 | 16.1 | 2.59 | 3.10 | 0.48 | 94 | 1005.2 |
| 20260505222315 | 13 | 11 | 8.0 | 19.3 | 2.49 | 3.00 | 0.46 | 93 | 1005.2 |
| 20260505221816 | 13 | 12 | 9.7 | 19.3 | 2.31 | 2.79 | 0.43 | 93 | 1005.5 |
| 20260505221318 | 13 | 59 | 6.4 | 9.7 | 1.09 | 1.60 | 0.18 | 92 | 1006.2 |
| 20260505220819 | 13 | 61 | 1.6 | 8.0 | 0.99 | 1.50 | 0.15 | 92 | 1006.3 |
| 20260505220339 | 13 | 41 | 3.2 | 8.0 | 0.89 | 1.40 | 0.15 | 91 | 1006.2 |
| 20260505215820 | 14 | 52 | 1.6 | 16.1 | 0.00 | 0.51 | 0.10 | 91 | 1006.2 |
| 20260505215342 | 13 | 49 | 6.4 | 16.1 | 0.00 | 0.51 | 0.10 | 91 | 1006.0 |
| 20260505214823 | 13 | 49 | 8.0 | 14.5 | 0.00 | 0.51 | 0.10 | 91 | 1006.3 |
| 20260505214325 | 13 | 67 | 6.4 | 12.9 | 0.00 | 0.51 | 0.10 | 91 | 1006.2 |
| 20260505213828 | 13 | 27 | 8.0 | 12.9 | 0.00 | 0.51 | 0.10 | 91 | 1006.2 |
| 20260505213331 | 14 | 49 | 6.4 | 12.9 | 0.00 | 0.51 | 0.10 | 91 | 1006.1 |
| 20260505212813 | 14 | 70 | 4.8 | 14.5 | 0.00 | 0.51 | 0.10 | 91 | 1005.9 |
| 20260505212317 | 14 | 65 | 6.4 | 16.1 | 0.00 | 0.51 | 0.10 | 90 | 1005.9 |
| 20260505211838 | 14 | 53 | 9.7 | 17.7 | 0.00 | 0.51 | 0.10 | 90 | 1006.0 |
| 20260505211340 | 14 | 42 | 8.0 | 19.3 | 0.00 | 0.51 | 0.10 | 90 | 1006.1 |
| 20260505210841 | 14 | 74 | 11.3 | 29.0 | 0.00 | 0.51 | 0.10 | 90 | 1006.1 |
| 20260505210321 | 14 | 60 | 16.1 | 29.0 | 0.00 | 0.51 | 0.10 | 89 | 1006.0 |
| 20260505205840 | 14 | 51 | 11.3 | 25.7 | 0.00 | 0.51 | 0.10 | 89 | 1006.0 |
| 20260505204821 | 15 | 69 | 11.3 | 25.7 | 0.00 | 0.51 | 0.10 | 89 | 1006.0 |
| 20260505204323 | 15 | 56 | 16.1 | 25.7 | 0.00 | 0.51 | 0.10 | 88 | 1005.9 |
| 20260505203321 | 15 | 49 | 11.3 | 19.3 | 0.00 | 0.51 | 0.10 | 88 | 1005.9 |
| 20260505202825 | 15 | 43 | 11.3 | 19.3 | 0.00 | 0.51 | 0.10 | 87 | 1005.9 |
| 20260505202327 | 15 | 57 | 9.7 | 16.1 | 0.00 | 0.51 | 0.10 | 87 | 1006.0 |
| 20260505201830 | 15 | 46 | 6.4 | 12.9 | 0.00 | 0.51 | 0.10 | 87 | 1006.0 |
| 20260505201332 | 15 | 31 | 6.4 | 14.5 | 0.00 | 0.51 | 0.10 | 87 | 1006.1 |
| 20260505200828 | 15 | 84 | 9.7 | 14.5 | 0.00 | 0.51 | 0.10 | 86 | 1006.0 |
| 20260505200328 | 15 | 43 | 6.4 | 16.1 | 0.00 | 0.51 | 0.10 | 86 | 1006.0 |
| 20260505195848 | 15 | 46 | 9.7 | 16.1 | 0.00 | 0.51 | 0.10 | 85 | 1006.0 |
| 20260505195326 | 15 | 45 | 8.0 | 16.1 | 0.00 | 0.51 | 0.10 | 85 | 1006.0 |
| 20260505194826 | 15 | 63 | 8.0 | 12.9 | 0.00 | 0.51 | 0.10 | 85 | 1005.9 |
| 20260505194327 | 15 | 42 | 4.8 | 11.3 | 0.00 | 0.51 | 0.10 | 86 | 1005.9 |
| 20260505193828 | 15 | 61 | 3.2 | 11.3 | 0.00 | 0.51 | 0.10 | 86 | 1005.9 |
| 20260505192830 | 16 | 60 | 4.8 | 9.7 | 0.00 | 0.51 | 0.10 | 87 | 1005.9 |
| 20260505192312 | 16 | 25 | 4.8 | 9.7 | 0.00 | 0.51 | 0.10 | 88 | 1005.9 |
| 20260505191815 | 16 | 49 | 3.2 | 11.3 | 0.00 | 0.51 | 0.10 | 87 | 1006.0 |
| 20260505191318 | 16 | 49 | 4.8 | 11.3 | 0.00 | 0.51 | 0.10 | 88 | 1006.0 |
| 20260505190820 | 16 | 58 | 4.8 | 11.3 | 0.00 | 0.51 | 0.10 | 87 | 1006.0 |
| 20260505190343 | 16 | 39 | 4.8 | 11.3 | 0.00 | 0.51 | 0.10 | 87 | 1006.1 |
| 20260505185824 | 16 | 41 | 4.8 | 11.3 | 0.00 | 0.51 | 0.10 | 86 | 1006.0 |
| 20260505185348 | 16 | 3 | 3.2 | 14.5 | 0.00 | 0.51 | 0.10 | 86 | 1006.0 |
| 20260505184828 | 16 | 25 | 6.4 | 14.5 | 0.00 | 0.51 | 0.10 | 85 | 1005.9 |
| 20260505184330 | 16 | 13 | 4.8 | 14.5 | 0.00 | 0.51 | 0.10 | 85 | 1005.8 |
| 20260505183814 | 16 | 45 | 4.8 | 12.9 | 0.00 | 0.51 | 0.10 | 85 | 1005.8 |
| 20260505183334 | 16 | 61 | 4.8 | 12.9 | 0.00 | 0.51 | 0.10 | 84 | 1005.9 |
| 20260505182324 | 17 | 15 | 4.8 | 12.9 | 0.00 | 0.51 | 0.10 | 83 | 1006.0 |
| 20260505181825 | 17 | 24 | 6.4 | 17.7 | 0.00 | 0.51 | 0.10 | 82 | 1006.0 |
| 20260505181325 | 17 | 351 | 6.4 | 17.7 | 0.00 | 0.51 | 0.10 | 81 | 1006.0 |
| 20260505180827 | 17 | 27 | 6.4 | 14.5 | 0.00 | 0.51 | 0.10 | 81 | 1006.1 |
| 20260505180329 | 17 | 52 | 6.4 | 14.5 | 0.00 | 0.51 | 0.10 | 82 | 1006.1 |
| 20260505175831 | 17 | 56 | 4.8 | 14.5 | 0.00 | 0.51 | 0.10 | 82 | 1006.1 |
| 20260505175313 | 17 | 51 | 6.4 | 14.5 | 0.00 | 0.51 | 0.10 | 81 | 1006.1 |
| 20260505174836 | 17 | 46 | 6.4 | 12.9 | 0.00 | 0.51 | 0.10 | 81 | 1006.2 |
| 20260505174320 | 17 | 58 | 6.4 | 12.9 | 0.00 | 0.51 | 0.10 | 81 | 1006.1 |
| 20260505173825 | 17 | 33 | 8.0 | 12.9 | 0.00 | 0.51 | 0.10 | 80 | 1006.1 |
| 20260505173328 | 18 | 53 | 3.2 | 12.9 | 0.00 | 0.51 | 0.10 | 80 | 1006.1 |
| 20260505172825 | 18 | 46 | 3.2 | 12.9 | 0.00 | 0.51 | 0.10 | 80 | 1006.1 |
| 20260505172330 | 18 | 33 | 3.2 | 14.5 | 0.00 | 0.51 | 0.10 | 79 | 1006.1 |
| 20260505171814 | 18 | 51 | 3.2 | 14.5 | 0.00 | 0.51 | 0.10 | 79 | 1006.1 |
| 20260505171317 | 18 | 36 | 3.2 | 6.4 | 0.00 | 0.51 | 0.10 | 79 | 1006.1 |
| 20260505170841 | 18 | 22 | 3.2 | 8.0 | 0.00 | 0.51 | 0.10 | 80 | 1006.2 |
| 20260505170324 | 18 | 51 | 3.2 | 8.0 | 0.00 | 0.51 | 0.10 | 79 | 1006.2 |
| 20260505165825 | 18 | 65 | 3.2 | 8.0 | 0.00 | 0.51 | 0.10 | 79 | 1006.2 |
| 20260505165324 | 18 | 20 | 4.8 | 12.9 | 0.00 | 0.51 | 0.10 | 79 | 1006.1 |
| 20260505164825 | 18 | 52 | 6.4 | 12.9 | 0.00 | 0.51 | 0.10 | 78 | 1006.1 |
| 20260505164324 | 18 | 6 | 6.4 | 9.7 | 0.00 | 0.51 | 0.10 | 78 | 1006.3 |
| 20260505163825 | 18 | 68 | 4.8 | 11.3 | 0.00 | 0.51 | 0.10 | 79 | 1006.4 |
| 20260505163324 | 18 | 3 | 6.4 | 12.9 | 0.00 | 0.51 | 0.10 | 79 | 1006.4 |
| 20260505162824 | 18 | 51 | 4.8 | 12.9 | 0.00 | 0.51 | 0.10 | 80 | 1006.4 |
| 20260505162324 | 18 | 46 | 6.4 | 12.9 | 0.00 | 0.51 | 0.10 | 79 | 1006.4 |
| 20260505161845 | 18 | 44 | 6.4 | 14.5 | 0.00 | 0.51 | 0.10 | 79 | 1006.5 |
| 20260505161325 | 18 | 45 | 8.0 | 14.5 | 0.00 | 0.51 | 0.10 | 80 | 1006.5 |
| 20260505160828 | 18 | 82 | 4.8 | 12.9 | 0.00 | 0.51 | 0.10 | 80 | 1006.5 |
| 20260505160351 | 18 | 58 | 6.4 | 11.3 | 0.00 | 0.51 | 0.10 | 80 | 1006.5 |
| 20260505153323 | 18 | 46 | 8.0 | 11.3 | 0.00 | 0.51 | 0.10 | 78 | 1006.7 |
| 20260505152826 | 18 | 45 | 6.4 | 11.3 | 0.00 | 0.51 | 0.10 | 78 | 1006.8 |
| 20260505152348 | 18 | 24 | 3.2 | 9.7 | 0.00 | 0.51 | 0.10 | 79 | 1006.8 |
| 20260505151830 | 18 | 27 | 4.8 | 11.3 | 0.00 | 0.51 | 0.10 | 80 | 1006.8 |
| 20260505151313 | 18 | 26 | 4.8 | 11.3 | 0.00 | 0.51 | 0.10 | 79 | 1006.8 |
| 20260505150816 | 18 | 18 | 6.4 | 12.9 | 0.00 | 0.51 | 0.10 | 78 | 1006.8 |
| 20260505150340 | 18 | 32 | 6.4 | 12.9 | 0.00 | 0.51 | 0.10 | 80 | 1006.8 |
| 20260505140319 | 18 | 23 | 3.2 | 17.7 | 0.00 | 0.51 | 0.10 | 78 | 1007.2 |
| 20260505124842 | 18 | 21 | 8.0 | 14.5 | 0.00 | 0.51 | 0.10 | 80 | 1007.6 |
| 20260505124344 | 18 | 319 | 8.0 | 14.5 | 0.00 | 0.51 | 0.10 | 79 | 1007.7 |
| 20260505123844 | 18 | 340 | 6.4 | 14.5 | 0.00 | 0.51 | 0.10 | 81 | 1007.6 |
| 20260505123326 | 18 | 319 | 6.4 | 12.9 | 0.00 | 0.51 | 0.10 | 83 | 1007.6 |
| 20260505122332 | 17 | 337 | 8.0 | 17.7 | 0.00 | 0.51 | 0.10 | 83 | 1007.8 |
| 20260505121816 | 17 | 18 | 6.4 | 17.7 | 0.00 | 0.51 | 0.10 | 83 | 1007.8 |
| 20260505121319 | 17 | 29 | 4.8 | 16.1 | 0.00 | 0.51 | 0.10 | 84 | 1007.8 |
| 20260505120822 | 17 | 25 | 6.4 | 14.5 | 0.00 | 0.51 | 0.10 | 83 | 1007.8 |
| 20260505120343 | 17 | 343 | 6.4 | 14.5 | 0.00 | 0.51 | 0.10 | 82 | 1007.9 |
| 20260505115824 | 18 | 359 | 4.8 | 12.9 | 0.00 | 0.51 | 0.10 | 82 | 1008.0 |
| 20260505115328 | 18 | 46 | 6.4 | 12.9 | 0.00 | 0.51 | 0.10 | 81 | 1007.9 |
| 20260505114814 | 18 | 35 | 8.0 | 12.9 | 0.00 | 0.51 | 0.10 | 80 | 1008.0 |
| 20260505114313 | 18 | 47 | 4.8 | 16.1 | 0.00 | 0.51 | 0.10 | 83 | 1007.9 |
| 20260505113814 | 17 | 32 | 8.0 | 16.1 | 0.00 | 0.51 | 0.10 | 82 | 1007.9 |
| 20260505113315 | 17 | 355 | 4.8 | 12.9 | 0.00 | 0.51 | 0.10 | 85 | 1007.9 |
| 20260505112838 | 17 | 354 | 8.0 | 12.9 | 0.00 | 0.51 | 0.10 | 84 | 1008.0 |
| 20260505112320 | 17 | 23 | 4.8 | 14.5 | 0.00 | 0.51 | 0.10 | 86 | 1008.0 |
| 20260505111822 | 17 | 2 | 6.4 | 12.9 | 0.00 | 0.51 | 0.10 | 88 | 1008.0 |
| 20260505111322 | 17 | 20 | 6.4 | 9.7 | 0.00 | 0.51 | 0.10 | 88 | 1008.0 |
| 20260505110823 | 17 | 345 | 6.4 | 14.5 | 0.00 | 0.51 | 0.10 | 89 | 1008.1 |
| 20260505110327 | 17 | 23 | 8.0 | 14.5 | 0.00 | 0.51 | 0.10 | 89 | 1008.1 |